When you browse on this site, cookies collect data to enhance your experience and personalize the content and advertising you see.
Visit our Privacy Policy to learn more. By continuing to use the site, you agree to this use of cookies and data.
  • In Latvia
  • List of Countries
  • For 7 days
  • Water Temperature
  • Satellite Maps
  • Weather Map
  • Weather Widgets
  • user-avatar
    Login

    Hourly Weather Sydney

    Today, 22 July, Monday

    Time Temperature Precipitation Wind Pressure Humidity
    00:00 +12°C° 0 mm 3 mps 761 mmHg 53%
    01:00 +12°C° 0 mm 3 mps 761 mmHg 54%
    02:00 +12°C° 0 mm 3 mps 761 mmHg 55%
    03:00 +13°C° 0 mm 2 mps 761 mmHg 57%
    04:00 +13°C° 0 mm 2 mps 761 mmHg 60%
    05:00 +11°C° 0 mm 3 mps 761 mmHg 62%
    06:00 +11°C° 0 mm 3 mps 761 mmHg 63%
    07:00 +11°C° 0 mm 3 mps 762 mmHg 64%
    08:00 +13°C° 0 mm 3 mps 762 mmHg 60%
    09:00 +16°C° 0 mm 3 mps 762 mmHg 55%
    10:00 +18°C° 0 mm 2 mps 762 mmHg 46%
    11:00 +19°C° 0 mm 2 mps 761 mmHg 42%
    12:00 +21°C° 0 mm 2 mps 761 mmHg 38%
    13:00 +24°C° 0 mm 2 mps 760 mmHg 34%
    14:00 +24°C° 0 mm 2 mps 760 mmHg 35%
    15:00 +22°C° 0 mm 3 mps 760 mmHg 36%
    16:00 +22°C° 0 mm 3 mps 759 mmHg 38%
    17:00 +20°C° 0 mm 3 mps 760 mmHg 44%
    18:00 +19°C° 0 mm 4 mps 760 mmHg 50%
    19:00 +17°C° 0 mm 4 mps 760 mmHg 56%
    20:00 +15°C° 0 mm 4 mps 761 mmHg 60%
    21:00 +14°C° 0 mm 4 mps 761 mmHg 63%
    22:00 +14°C° 0 mm 4 mps 761 mmHg 67%
    23:00 +13°C° 0 mm 4 mps 761 mmHg 69%

    Tomorrow, 23 July, Tuesday

    Time Temperature Precipitation Wind Pressure Humidity
    00:00 +12°C° 0 mm 4 mps 761 mmHg 71%
    01:00 +12°C° 0 mm 4 mps 761 mmHg 73%
    02:00 +11°C° 0 mm 4 mps 761 mmHg 75%
    03:00 +11°C° 0 mm 4 mps 760 mmHg 76%
    04:00 +11°C° 0 mm 4 mps 760 mmHg 78%
    05:00 +10°C° 0 mm 4 mps 761 mmHg 78%
    06:00 +10°C° 0 mm 4 mps 761 mmHg 79%
    07:00 +8°C° 0 mm 4 mps 761 mmHg 79%
    08:00 +12°C° 0 mm 4 mps 761 mmHg 67%
    09:00 +14°C° 0 mm 4 mps 761 mmHg 55%
    10:00 +17°C° 0 mm 4 mps 761 mmHg 42%
    11:00 +19°C° 0 mm 4 mps 761 mmHg 35%
    12:00 +21°C° 0 mm 4 mps 760 mmHg 28%
    13:00 +23°C° 0 mm 4 mps 760 mmHg 21%
    14:00 +23°C° 0 mm 4 mps 760 mmHg 22%
    15:00 +22°C° 0 mm 5 mps 760 mmHg 24%
    16:00 +22°C° 0 mm 6 mps 760 mmHg 26%
    17:00 +20°C° 0 mm 5 mps 760 mmHg 30%
    18:00 +17°C° 0 mm 5 mps 760 mmHg 34%
    19:00 +15°C° 0 mm 5 mps 761 mmHg 38%
    20:00 +14°C° 0 mm 5 mps 761 mmHg 42%
    21:00 +14°C° 0 mm 4 mps 761 mmHg 45%
    22:00 +13°C° 0 mm 4 mps 762 mmHg 48%
    23:00 +12°C° 0 mm 4 mps 761 mmHg 49%

    Day after tomorrow, 24 July, Wednesday

    Time Temperature Precipitation Wind Pressure Humidity
    00:00 +12°C° 0 mm 4 mps 761 mmHg 50%
    01:00 +12°C° 0 mm 4 mps 761 mmHg 51%
    02:00 +11°C° 0 mm 4 mps 761 mmHg 54%
    03:00 +11°C° 0 mm 3 mps 761 mmHg 57%
    04:00 +10°C° 0 mm 2 mps 760 mmHg 60%
    05:00 +10°C° 0 mm 2 mps 761 mmHg 61%
    06:00 +10°C° 0 mm 2 mps 762 mmHg 62%
    07:00 +10°C° 0 mm 2 mps 763 mmHg 62%
    08:00 +12°C° 0 mm 3 mps 763 mmHg 56%
    09:00 +14°C° 0 mm 4 mps 764 mmHg 50%
    10:00 +17°C° 0 mm 4 mps 764 mmHg 44%
    11:00 +16°C° 0 mm 5 mps 764 mmHg 38%
    12:00 +17°C° 0 mm 5 mps 764 mmHg 33%
    13:00 +19°C° 0 mm 5 mps 763 mmHg 27%
    14:00 +17°C° 0 mm 5 mps 764 mmHg 35%
    15:00 +16°C° 0 mm 5 mps 764 mmHg 44%
    16:00 +15°C° 0 mm 5 mps 764 mmHg 52%
    17:00 +14°C° 0 mm 4 mps 765 mmHg 57%
    18:00 +12°C° 0 mm 4 mps 766 mmHg 62%
    19:00 +11°C° 0 mm 4 mps 766 mmHg 66%
    20:00 +11°C° 0 mm 4 mps 767 mmHg 64%
    21:00 +10°C° 0 mm 4 mps 767 mmHg 62%
    22:00 +9°C° 0 mm 3 mps 768 mmHg 60%
    23:00 +9°C° 0 mm 3 mps 768 mmHg 62%

    25 July, Thursday

    Time Temperature Precipitation Wind Pressure Humidity
    00:00 +8°C° 0 mm 3 mps 768 mmHg 63%
    01:00 +8°C° 0 mm 3 mps 768 mmHg 64%
    02:00 +7°C° 0 mm 3 mps 768 mmHg 66%
    03:00 +7°C° 0 mm 3 mps 768 mmHg 67%
    04:00 +5°C° 0 mm 3 mps 768 mmHg 69%
    05:00 +5°C° 0 mm 3 mps 768 mmHg 71%
    06:00 +5°C° 0 mm 3 mps 768 mmHg 72%
    07:00 +4°C° 0 mm 3 mps 769 mmHg 73%
    08:00 +8°C° 0 mm 3 mps 769 mmHg 64%
    09:00 +10°C° 0 mm 3 mps 769 mmHg 55%
    10:00 +12°C° 0 mm 3 mps 769 mmHg 45%
    11:00 +15°C° 0 mm 2 mps 768 mmHg 42%
    12:00 +17°C° 0 mm 2 mps 767 mmHg 39%
    13:00 +19°C° 0 mm 1 mps 767 mmHg 36%
    14:00 +19°C° 0 mm 1 mps 766 mmHg 37%
    15:00 +18°C° 0 mm 2 mps 766 mmHg 38%
    16:00 +17°C° 0 mm 2 mps 766 mmHg 38%
    17:00 +16°C° 0 mm 2 mps 766 mmHg 47%
    18:00 +14°C° 0 mm 2 mps 767 mmHg 56%
    19:00 +12°C° 0 mm 2 mps 767 mmHg 64%
    20:00 +12°C° 0 mm 2 mps 767 mmHg 68%
    21:00 +10°C° 0 mm 2 mps 767 mmHg 72%
    22:00 +9°C° 0 mm 2 mps 767 mmHg 76%
    23:00 +9°C° 0 mm 2 mps 767 mmHg 77%

    26 July, Friday

    Time Temperature Precipitation Wind Pressure Humidity
    00:00 +9°C° 0 mm 2 mps 767 mmHg 79%
    01:00 +8°C° 0 mm 2 mps 766 mmHg 80%
    02:00 +8°C° 0 mm 2 mps 766 mmHg 80%
    03:00 +8°C° 0 mm 2 mps 766 mmHg 80%
    04:00 +8°C° 0 mm 3 mps 765 mmHg 80%
    05:00 +7°C° 0 mm 3 mps 765 mmHg 80%
    06:00 +7°C° 0 mm 2 mps 765 mmHg 80%
    07:00 +7°C° 0 mm 2 mps 765 mmHg 80%
    08:00 +9°C° 0 mm 2 mps 765 mmHg 74%
    09:00 +12°C° 0 mm 2 mps 765 mmHg 67%
    10:00 +13°C° 0 mm 2 mps 765 mmHg 60%
    11:00 +15°C° 0 mm 2 mps 764 mmHg 54%
    12:00 +17°C° 0 mm 2 mps 763 mmHg 47%
    13:00 +18°C° 0 mm 2 mps 763 mmHg 40%
    14:00 +19°C° 0 mm 1 mps 763 mmHg 40%
    15:00 +19°C° 0 mm 1 mps 763 mmHg 39%
    16:00 +19°C° 0 mm 1 mps 763 mmHg 39%
    17:00 +17°C° 0 mm 2 mps 763 mmHg 44%
    18:00 +15°C° 0 mm 4 mps 763 mmHg 49%
    19:00 +13°C° 0 mm 5 mps 764 mmHg 54%
    20:00 +13°C° 0 mm 5 mps 764 mmHg 57%
    21:00 +12°C° 0 mm 5 mps 764 mmHg 60%
    22:00 +10°C° 0 mm 5 mps 765 mmHg 63%
    23:00 +10°C° 0 mm 5 mps 765 mmHg 66%

    27 July, Saturday

    Time Temperature Precipitation Wind Pressure Humidity
    00:00 +10°C° 0 mm 4 mps 765 mmHg 69%
    01:00 +8°C° 0 mm 4 mps 765 mmHg 72%
    02:00 +8°C° 0 mm 4 mps 765 mmHg 74%
    03:00 +7°C° 0 mm 4 mps 764 mmHg 75%
    04:00 +8°C° 0 mm 3 mps 764 mmHg 76%
    05:00 +8°C° 0 mm 3 mps 765 mmHg 77%
    06:00 +8°C° 0 mm 3 mps 765 mmHg 78%
    07:00 +7°C° 0 mm 3 mps 765 mmHg 79%
    08:00 +10°C° 0 mm 3 mps 766 mmHg 70%
    09:00 +12°C° 0 mm 3 mps 766 mmHg 60%
    10:00 +14°C° 0 mm 3 mps 766 mmHg 51%
    11:00 +17°C° 0 mm 2 mps 765 mmHg 47%
    12:00 +18°C° 0 mm 2 mps 765 mmHg 43%
    13:00 +21°C° 0 mm 1 mps 764 mmHg 38%
    14:00 +19°C° 0 mm 2 mps 764 mmHg 42%
    15:00 +18°C° 0 mm 2 mps 764 mmHg 46%
    16:00 +17°C° 0 mm 2 mps 764 mmHg 49%
    17:00 +16°C° 0 mm 1 mps 764 mmHg 54%
    18:00 +15°C° 0 mm 1 mps 764 mmHg 59%
    19:00 +13°C° 0 mm 0 mps 765 mmHg 64%
    20:00 +14°C° 0 mm 1 mps 765 mmHg 66%
    21:00 +13°C° 0 mm 2 mps 765 mmHg 68%
    22:00 +11°C° 0 mm 3 mps 766 mmHg 70%
    23:00 +11°C° 0 mm 3 mps 765 mmHg 71%
    Show more